[[{"header":{"parameterUnit":"m.s-1","parameterCategory":1,"la1":30.2991,"la2":30.254,"lo1":-89.0895,"lo2":-89.0444,"dy":0.0017,"dx":0.0017,"nx":28,"ny":28,"refTime":"2025-11-10T09:00:00:Z","depth":0,"parameterNumber":2,"parameterNumberName":"U-component_of_WINDS"},"data":[0,0,0,0,0,0,0,0,0,0,0,0,0,0,0,0,0,0,0,0,0,0,0,0,0,0,0,0,0,0,0,0,0,0,0,0,0,0,0,0,0,0,0,0,0,0,0,0,0,0,0,0,0,0,0,0,0,0,1.716,1.7161,0,1.7207,1.7208,1.7208,1.7196,1.7195,1.7194,1.7193,1.7239,1.7241,1.7243,0,0,0,0,0,0,0,0,0,0,0,0,0,1.7059,1.7061,1.716,1.7161,1.7161,1.7207,1.7208,1.7208,1.7196,1.7195,1.7194,1.7193,1.7238,1.7241,1.7243,0,0,0,0,0,0,0,0,0,0,0,0,0,1.7104,1.7061,1.716,1.7161,1.7161,1.7207,1.7208,1.7209,1.7196,1.7195,1.7194,1.7192,1.7238,1.7241,1.7244,1.7291,0,0,1.7253,1.7255,0,0,0,0,0,0,0,0,1.7102,1.7108,1.716,1.7161,1.7161,1.7194,1.7189,1.7236,1.7197,1.7183,1.7193,1.7192,1.7225,1.7229,1.7241,1.7293,1.7295,1.7254,1.7256,1.7257,1.7258,0,0,0,0,0,0,0,1.7098,1.7106,1.7179,1.7161,1.7162,1.7159,1.7163,1.7198,1.7211,1.7184,1.7183,1.7189,1.7225,1.7238,1.7242,1.7296,1.7254,1.7256,1.7258,1.726,1.7392,1.7393,0,0,0,0,0,0,1.7095,1.7103,1.7177,1.718,1.7128,1.7162,1.7167,1.7185,1.7211,1.7213,1.719,1.7188,1.7233,1.7238,1.7244,1.7302,1.7257,1.726,1.7262,1.739,1.7392,1.7394,0,0,0,0,0,0,1.7093,1.7102,1.7175,1.7142,1.7151,1.7165,1.7185,1.7187,1.72,1.7216,1.7218,1.7201,1.7233,1.7239,1.728,1.7303,1.7261,1.7264,1.7388,1.7391,1.7393,1.7418,0,0,0,0,0,0,1.709,1.7101,1.7119,1.7142,1.7153,1.7211,1.7187,1.7189,1.7205,1.7203,1.7226,1.7229,1.7232,1.7275,1.7283,1.7307,1.7267,1.7386,1.7389,1.7392,1.7415,1.742,1.7425,0,0,0,0,0,1.7086,1.7123,1.712,1.7129,1.7175,1.7212,1.7218,1.7222,1.7207,1.7225,1.7236,1.7228,1.73,1.728,1.7288,1.7313,1.7384,1.7388,1.7392,1.7412,1.7419,1.7425,0,0,0,0,0,0,1.71,1.7126,1.7123,1.7168,1.7188,1.721,1.7233,1.7229,1.7253,1.725,1.7253,1.7259,1.7301,1.7311,1.7288,1.7361,1.734,1.7346,1.7353,1.7359,1.7365,1.7361,1.7269,0,0,0,0,0,1.7109,1.7137,1.7158,1.7196,1.7206,1.7218,1.7234,1.7236,1.7257,1.7265,1.7278,1.7298,1.7326,1.7343,1.7369,1.7417,1.7422,1.7438,1.7444,1.7448,1.7452,1.748,1.7488,1.7406,1.7406,1.7406,0,0,1.7126,1.7144,1.7161,1.7199,1.7215,1.7244,1.7225,1.7256,1.7278,1.7269,1.7309,1.732,1.7343,1.7388,1.7408,1.7398,1.7477,1.7453,1.7456,1.7458,1.7484,1.7492,1.7499,1.7408,1.7408,1.7407,0,0,1.7173,1.7189,1.7223,1.724,1.7265,1.7274,1.7282,1.7305,1.7313,1.7353,1.7348,1.7374,1.742,1.7437,1.7452,1.7509,1.7503,1.7518,1.7545,1.7572,1.7578,1.7584,1.7605,1.7612,1.7522,1.7522,1.7522,0,1.7191,1.7235,1.7241,1.7274,1.7291,1.7286,1.7321,1.7337,1.7369,1.7381,1.737,1.743,1.7445,1.7494,1.7509,1.7521,1.7531,1.7514,1.7577,1.7583,1.7588,1.7608,1.7616,1.7524,1.7524,1.7524,1.7523,0,1.7257,1.7288,1.7312,1.7345,1.7365,1.7398,1.741,1.743,1.7431,1.744,1.7482,1.7501,1.7531,1.7543,1.7543,1.7593,1.7586,1.7576,1.7554,1.7598,1.7616,1.7624,1.7526,1.7526,1.7525,1.7525,0,0,1.731,1.7348,1.7357,1.7373,1.7402,1.7426,1.746,1.7491,1.7508,1.7531,1.756,1.7602,1.7593,1.761,1.7613,1.7636,1.7681,1.7623,1.7624,1.7633,1.7738,1.7745,1.7754,1.7678,1.768,1.7681,1.7736,0,1.7359,1.7419,1.7427,1.7481,1.751,1.7508,1.7538,1.7559,1.757,1.7597,1.7608,1.7638,1.7624,1.7635,1.7658,1.7671,1.7702,1.7667,1.7705,1.7706,1.7698,1.7763,1.777,1.7822,1.7744,1.7745,1.7746,0,1.7423,1.745,1.7507,1.7534,1.7547,1.7574,1.7604,1.7629,1.7654,1.7661,1.7681,1.7682,1.7718,1.7697,1.7746,1.7722,1.7739,1.7748,1.775,1.7752,1.7727,1.7767,1.7838,1.7845,1.7757,1.7756,1.7756,0,1.7457,1.7507,1.7548,1.7562,1.7594,1.7614,1.7628,1.7652,1.7671,1.7697,1.771,1.774,1.7756,1.778,1.7789,1.7773,1.7839,1.7818,1.7845,1.7845,1.7857,1.7856,1.7931,1.787,1.787,1.787,1.7869,0,1.751,1.7544,1.7564,1.7589,1.7629,1.7638,1.7677,1.7691,1.7712,1.774,1.7741,1.7767,1.7778,1.7806,1.7814,1.7855,1.7862,1.7868,1.7869,1.7867,1.7867,1.7877,1.7873,1.7872,1.7871,1.7871,1.787,0,1.7552,1.7567,1.7612,1.764,1.7648,1.7676,1.7701,1.7725,1.7737,1.7773,1.7782,1.78,1.7834,1.7846,1.7886,1.7892,1.7939,1.7938,1.7931,1.7931,1.7957,1.7954,1.804,1.8052,1.7984,1.7984,1.7985,0,1.7584,1.7612,1.7644,1.7664,1.7679,1.771,1.7731,1.7742,1.7763,1.7795,1.7816,1.785,1.7877,1.7931,1.7948,1.798,1.7979,1.8007,1.7983,1.7981,1.7979,1.7977,1.798,1.8011,1.8011,1.8012,1.8012,0,1.764,1.7647,1.7676,1.7709,1.7734,1.776,1.7785,1.7801,1.7816,1.784,1.7875,1.7897,1.7939,1.7973,1.8006,1.8021,1.802,1.802,1.8028,1.8026,1.802,1.8024,1.7942,1.8018,1.8017,1.8017,1.8016,1.8016,1.7678,1.7703,1.7731,1.7764,1.7785,1.7809,1.7834,1.7851,1.788,1.7917,1.7922,1.796,1.7986,1.8031,1.8048,1.8078,1.807,1.8081,1.8084,1.8086,1.8088,1.8017,1.8084,1.8084,1.8084,1.8084,1.8083,0,1.7734,1.7752,1.7783,1.782,1.7846,1.7845,1.7873,1.7896,1.7929,1.7955,1.7983,1.8024,1.8058,1.8079,1.8113,1.8133,1.8133,1.8141,1.8139,1.8143,1.8093,1.8083,1.8141,1.8141,1.8141,1.8141,1.8141,1.8141,1.7766,1.7808,1.7818,1.7872,1.789,1.7928,1.7944,1.7967,1.7988,1.8034,1.8063,1.8077,1.8101,1.8137,1.8169,1.8174,1.8186,1.8195,1.82,1.8152,1.8146,1.8141,1.8131,1.8198,1.8198,1.8247,1.8247,1.8248]},{"header":{"parameterUnit":"m.s-1","parameterCategory":1,"la1":30.2991,"la2":30.254,"lo1":-89.0895,"lo2":-89.0444,"dy":0.0017,"dx":0.0017,"nx":28,"ny":28,"refTime":"2025-11-10T09:00:00:Z","depth":0,"parameterNumber":3,"parameterNumberName":"V-component_of_WINDS"},"data":[0,0,0,0,0,0,0,0,0,0,0,0,0,0,0,0,0,0,0,0,0,0,0,0,0,0,0,0,0,0,0,0,0,0,0,0,0,0,0,0,0,0,0,0,0,0,0,0,0,0,0,0,0,0,0,0,0,0,-6.7586,-6.7588,0,-6.7768,-6.777,-6.7772,-6.7672,-6.7667,-6.7662,-6.7657,-6.784,-6.785,-6.7859,0,0,0,0,0,0,0,0,0,0,0,0,0,-6.7148,-6.7156,-6.7586,-6.7588,-6.759,-6.7768,-6.777,-6.7772,-6.7673,-6.7666,-6.766,-6.7655,-6.7837,-6.7848,-6.786,0,0,0,0,0,0,0,0,0,0,0,0,0,-6.7335,-6.7159,-6.7585,-6.7562,-6.7562,-6.7767,-6.777,-6.7773,-6.7674,-6.7666,-6.7659,-6.7652,-6.7834,-6.7847,-6.7862,-6.81,0,0,-6.7905,-6.7911,0,0,0,0,0,0,0,0,-6.7324,-6.7351,-6.7563,-6.7564,-6.7564,-6.7689,-6.7683,-6.7883,-6.7676,-6.7631,-6.7657,-6.7648,-6.7796,-6.7813,-6.7863,-6.8108,-6.8116,-6.7906,-6.7915,-6.7921,-6.7925,0,0,0,0,0,0,0,-6.7311,-6.7343,-6.7658,-6.7566,-6.7567,-6.7541,-6.7559,-6.772,-6.7753,-6.7634,-6.7628,-6.7651,-6.7795,-6.785,-6.7867,-6.8119,-6.7906,-6.7919,-6.7928,-6.7933,-6.8566,-6.8574,0,0,0,0,0,0,-6.73,-6.7332,-6.7652,-6.7663,-6.7423,-6.7555,-6.7575,-6.7657,-6.7751,-6.7758,-6.7657,-6.7645,-6.7829,-6.785,-6.7873,-6.8157,-6.7921,-6.7935,-6.7943,-6.8558,-6.8568,-6.8577,0,0,0,0,0,0,-6.7291,-6.733,-6.7644,-6.7496,-6.7534,-6.7571,-6.7663,-6.7664,-6.7719,-6.7768,-6.7773,-6.7707,-6.7824,-6.7853,-6.8044,-6.8162,-6.7941,-6.7954,-6.8549,-6.8561,-6.8573,-6.8728,0,0,0,0,0,0,-6.7279,-6.7327,-6.7419,-6.7499,-6.7542,-6.7814,-6.767,-6.7673,-6.7744,-6.7731,-6.7817,-6.7824,-6.782,-6.8023,-6.8058,-6.8178,-6.7965,-6.8538,-6.8554,-6.8569,-6.8713,-6.8744,-6.8771,0,0,0,0,0,-6.7264,-6.7455,-6.7424,-6.7463,-6.7658,-6.7821,-6.7846,-6.7839,-6.7754,-6.7846,-6.7878,-6.7821,-6.8144,-6.8044,-6.8082,-6.8208,-6.8531,-6.855,-6.8568,-6.8699,-6.8738,-6.8771,0,0,0,0,0,0,-6.7387,-6.7465,-6.7432,-6.7655,-6.7732,-6.7804,-6.792,-6.788,-6.7982,-6.7965,-6.7951,-6.7971,-6.817,-6.8208,-6.8095,-6.8443,-6.8324,-6.8351,-6.8411,-6.8448,-6.8477,-6.8463,-6.7977,0,0,0,0,0,-6.7441,-6.7568,-6.7628,-6.7819,-6.786,-6.7883,-6.7954,-6.7942,-6.8021,-6.8053,-6.8098,-6.8176,-6.8295,-6.8373,-6.8485,-6.8717,-6.8734,-6.8823,-6.8852,-6.8876,-6.89,-6.9024,-6.9064,-6.8638,-6.8638,-6.8638,0,0,-6.7552,-6.761,-6.7691,-6.7845,-6.7904,-6.8034,-6.7912,-6.8055,-6.8151,-6.8074,-6.8258,-6.8294,-6.838,-6.8592,-6.8688,-6.863,-6.9021,-6.89,-6.8919,-6.8929,-6.9047,-6.9088,-6.9123,-6.8651,-6.8648,-6.8646,0,0,-6.7821,-6.7879,-6.8043,-6.8105,-6.8195,-6.8209,-6.8249,-6.8327,-6.8348,-6.8532,-6.8477,-6.8591,-6.8796,-6.8859,-6.8918,-6.9211,-6.9162,-6.9248,-6.9401,-6.9523,-6.9556,-6.9586,-6.969,-6.9727,-6.9271,-6.9271,-6.9272,0,-6.7948,-6.8143,-6.8133,-6.8281,-6.835,-6.8287,-6.8453,-6.8512,-6.8635,-6.8683,-6.8616,-6.8872,-6.8926,-6.9152,-6.9223,-6.9273,-6.9317,-6.9238,-6.9552,-6.9582,-6.961,-6.9708,-6.9747,-6.9281,-6.928,-6.9279,-6.9278,0,-6.8294,-6.843,-6.8552,-6.8673,-6.8755,-6.8912,-6.8924,-6.9008,-6.8989,-6.901,-6.9197,-6.9259,-6.9382,-6.9435,-6.9417,-6.9659,-6.962,-6.9554,-6.9434,-6.966,-6.9753,-6.979,-6.9295,-6.9292,-6.9289,-6.9286,0,0,-6.8646,-6.8758,-6.8803,-6.8857,-6.8952,-6.9056,-6.9209,-6.9331,-6.9403,-6.9489,-6.9616,-6.9791,-6.973,-6.9797,-6.9786,-6.9893,-7.012,-6.9813,-6.9815,-6.9867,-7.0388,-7.0438,-7.0482,-7.0088,-7.0095,-7.0101,-7.0381,0,-6.8921,-6.9189,-6.9184,-6.9432,-6.9558,-6.9499,-6.9632,-6.9704,-6.9728,-6.9837,-6.9862,-6.9986,-6.9896,-6.9936,-7.004,-7.007,-7.0224,-7.005,-7.0205,-7.0211,-7.0185,-7.053,-7.0583,-7.0844,-7.0417,-7.0423,-7.0428,0,-6.9278,-6.9376,-6.9638,-6.9714,-6.9766,-6.9886,-6.9996,-7.0101,-7.0181,-7.019,-7.0266,-7.0237,-7.0391,-7.0267,-7.0478,-7.036,-7.0423,-7.0448,-7.0458,-7.0471,-7.0333,-7.0553,-7.0927,-7.0966,-7.0485,-7.048,-7.0476,0,-6.9508,-6.9706,-6.9888,-6.9935,-7.0028,-7.0114,-7.0156,-7.0229,-7.0302,-7.0398,-7.0445,-7.0557,-7.0619,-7.0706,-7.0708,-7.0618,-7.0921,-7.0798,-7.0933,-7.0933,-7.0999,-7.0995,-7.1388,-7.1041,-7.104,-7.1039,-7.1038,0,-6.9815,-6.9977,-6.9992,-7.0104,-7.0283,-7.0275,-7.0452,-7.0487,-7.0552,-7.0668,-7.0624,-7.0734,-7.0731,-7.0842,-7.0845,-7.1019,-7.1047,-7.1058,-7.1057,-7.1062,-7.1061,-7.1103,-7.1085,-7.105,-7.1047,-7.1045,-7.1044,0,-7.0102,-7.0119,-7.0313,-7.0386,-7.0407,-7.0536,-7.0598,-7.0703,-7.0723,-7.0871,-7.0905,-7.0935,-7.1064,-7.1075,-7.1224,-7.1226,-7.1436,-7.1416,-7.141,-7.1406,-7.154,-7.1527,-7.1975,-7.2032,-7.1647,-7.1651,-7.1654,0,-7.0297,-7.0421,-7.0506,-7.0582,-7.0629,-7.0751,-7.0825,-7.0821,-7.09,-7.1,-7.1094,-7.1219,-7.1318,-7.1527,-7.1562,-7.1675,-7.1657,-7.1805,-7.1673,-7.1675,-7.1658,-7.1651,-7.1663,-7.1831,-7.1835,-7.1839,-7.1841,0,-7.0641,-7.0643,-7.0753,-7.0866,-7.0956,-7.1044,-7.1126,-7.119,-7.1196,-7.1287,-7.1419,-7.1496,-7.1649,-7.1773,-7.1884,-7.1926,-7.1886,-7.1883,-7.192,-7.1926,-7.1918,-7.1924,-7.148,-7.1873,-7.1869,-7.1867,-7.1865,-7.1864,-7.0888,-7.0995,-7.1072,-7.1195,-7.1256,-7.1334,-7.1437,-7.1469,-7.1579,-7.1704,-7.1694,-7.184,-7.1915,-7.2061,-7.2112,-7.2225,-7.2174,-7.2228,-7.2242,-7.2255,-7.2269,-7.19,-7.2245,-7.2244,-7.2243,-7.2243,-7.2242,0,-7.1229,-7.1276,-7.1389,-7.1506,-7.1603,-7.1556,-7.1645,-7.1728,-7.1857,-7.1932,-7.2031,-7.2182,-7.2302,-7.2346,-7.2463,-7.2545,-7.2529,-7.2575,-7.2569,-7.2579,-7.2308,-7.2264,-7.2586,-7.2586,-7.2586,-7.2586,-7.2586,-7.2586,-7.1418,-7.1596,-7.1607,-7.1815,-7.1859,-7.2002,-7.2057,-7.2128,-7.2187,-7.2358,-7.2458,-7.2486,-7.2548,-7.2669,-7.2777,-7.2786,-7.2831,-7.2886,-7.2888,-7.2633,-7.2599,-7.2565,-7.2524,-7.2896,-7.2897,-7.315,-7.3153,-7.3154]}]]